Location: N�rnberg
(49.4471°N, 11.0632°E)
Time: 18:46:19
(UTC+01:00)

ACS3 Solar Sail - Visible Passes

Search period start: 14 February 2026 00:00
Search period end: 24 February 2026 00:00
Orbit: 899 x 968 km, 97.2° (Epoch: 13 February)

Date Brightness Start Highest point End Pass type
(mag) Time Alt. Az. Time Alt. Az. Time Alt. Az.
14 Feb 4.0 03:37:17 10° N 03:37:54 13° N 03:37:54 13° N visible
15 Feb 4.5 02:06:43 10° NNE 02:06:49 10° NNE 02:06:49 10° NNE visible
15 Feb 4.0 03:49:56 10° N 03:50:35 13° N 03:50:35 13° N visible
16 Feb 4.4 02:19:06 10° NNE 02:19:28 12° NNE 02:19:28 12° NNE visible
16 Feb 3.9 04:02:37 10° N 04:03:14 12° NNW 04:03:14 12° NNW visible
17 Feb 4.2 02:31:28 10° NNE 02:32:03 13° NNE 02:32:03 13° NNE visible
17 Feb 3.9 04:15:20 10° NNW 04:15:49 12° NNW 04:15:49 12° NNW visible
18 Feb 4.1 02:43:50 10° N 02:44:38 14° N 02:44:38 14° N visible
18 Feb 3.9 04:28:07 10° NNW 04:28:23 11° NNW 04:28:23 11° NNW visible
19 Feb 4.0 02:56:11 10° N 02:57:09 15° N 02:57:09 15° N visible
20 Feb 3.9 03:08:31 10° N 03:09:38 16° N 03:09:38 16° N visible
21 Feb 4.5 01:38:10 10° NNE 01:38:19 11° NNE 01:38:19 11° NNE visible
21 Feb 3.8 03:20:51 10° N 03:22:03 16° N 03:22:03 16° N visible
22 Feb 4.3 01:50:12 10° NNE 01:50:43 13° NNE 01:50:43 13° NNE visible
22 Feb 3.8 03:33:11 10° N 03:34:27 16° N 03:34:27 16° N visible
23 Feb 4.2 02:02:15 10° NNE 02:03:04 14° NNE 02:03:04 14° NNE visible
23 Feb 3.7 03:45:30 10° N 03:46:49 16° NNW 03:46:49 16° NNW visible
